NOAA NWS Hourly Roundups by Site

Regional Weather Roundup for San Diego, CA

To Select Another Site Choose from List

Select Site:  

000
ASUS46 KSGX 140811
RWRSGX

SAN DIEGO HOURLY WEATHER ROUNDUP
NATIONAL WEATHER SERVICE SAN DIEGO CA
100 AM PDT MON JUN 14 2021

NOTE: "FAIR" INDICATES FEW OR NO CLOUDS BELOW 12,000 FEET WITH NO
SIGNIFICANT WEATHER AND/OR OBSTRUCTIONS TO VISIBILITY.

CAZ042-043-060-061-PZZ750-775-140900-

GREATER SAN DIEGO AREA

CITY           SKY/WX    TMP DP  RH WIND       PRES   REMARKS
SAN DIEGO AP   CLEAR     65  58  78 NW5       29.93F
CHULA VISTA      N/A     60  56  87 CALM      29.76S
BROWN FIELD    CLEAR     60  54  80 CALM      29.92F
MIRAMAR MCAS   CLEAR     61  58  90 NW5       29.92F
MONTGOMERY FLD CLEAR     63  58  83 N3        29.92F
GILLESPIE FLD  FAIR      63  54  72 CALM      29.91F
LEMON GROVE      N/A     62  58  86 CALM      29.88F

$$

NORTH SAN DIEGO COUNTY

CITY           SKY/WX    TMP DP  RH WIND       PRES   REMARKS
CAMP PENDLETON CLOUDY    60  55  83 CALM      29.93R
OCEANSIDE AP   CLOUDY    62  60  93 CALM      29.92S
OCEANSIDE HBR    N/A     63  60  90 CALM      29.99S
VISTA            N/A     59  54  83 CALM      29.90F
CARLSBAD       CLOUDY    61  58  90 CALM      29.91F
ENCINITAS        N/A     59  57  93 CALM        N/A
LA JOLLA SCRIP   N/A     63  58  84 CALM      29.91F
FALLBROOK      FAIR      57  57 100 CALM      29.93F
ESCONDIDO        N/A     64  56  75 W1        29.91S
SAN MARCOS       N/A     60  55  84 CALM      29.94F
RANCHO BERNARD   N/A     60  56  85 CALM      29.90F
POWAY            N/A     58  53  82 CALM      29.93S

$$

EAST SAN DIEGO COUNTY

CITY           SKY/WX    TMP DP  RH WIND       PRES   REMARKS
RAMONA         CLEAR     55  47  74 E3        29.94F
LA MESA          N/A     62  55  80 CALM      29.85F
DESCANSO N       N/A     59  33  36 NE3       29.90S

$$

ORANGE COUNTY AND THE LOS ANGELES BASIN

CITY           SKY/WX    TMP DP  RH WIND       PRES   REMARKS
JOHN WAYNE AP  CLEAR     64  59  83 S3        29.91F
LAGUNA BEACH     N/A     60  56  87 CALM      29.91F
LAKE FOREST FR   N/A     63  53  69 E1        29.78F
HUNTINGTON BCH   N/A     61  37  40 CALM      29.90F
LOS ALAMITOS   FAIR      62  62 100 CALM      29.91F
FULLERTON      CLEAR     66  55  67 CALM      29.90F
LONG BEACH     CLEAR     65  59  81 E3        29.91F
L.A. AP        CLEAR     63  58  83 S7        29.91S
L.A. DOWNTOWN  CLEAR     66  57  72 CALM      29.91S

$$

THE INLAND EMPIRE

CITY           SKY/WX    TMP DP  RH WIND       PRES   REMARKS
CORONA         CLEAR     64  55  72 W3        29.93S
UPLAND AP      FAIR      70  45  40 E6        29.94S
CHINO          CLEAR     65  51  60 CALM      29.93F
ONTARIO        PTCLDY    71  48  43 CALM      29.92F
SAN BERNARDINO FAIR      71  41  33 CALM      29.94S
RIVERSIDE AP   CLEAR     68  47  46 CALM      29.92F
MORENO VALLEY    N/A     68  47  47 CALM      29.87S
MARCH ARB      CLEAR     64  40  41 NW3       29.94F
HORSETHIEF CYN   N/A     66  47  50 SW2       29.88F
PERRIS           N/A     71  39  31 CALM      29.94S
LAKE ELSINORE    N/A     67  53  60 CALM      29.82F
HEMET AP       FAIR      64  44  48 CALM      29.95S
FRENCH VALLEY  FAIR      64  48  55 SE3       29.95S
TEMECULA         N/A     64  54  68 CALM      29.90S

$$

SAN BERNARDINO AND RIVERSIDE COUNTY MOUNTAINS

CITY           SKY/WX    TMP DP  RH WIND       PRES   REMARKS
BIG BEAR AP    CLEAR     46  14  27 W5        30.26F
BIG BEAR LAKE    N/A     51  12  21 CALM      29.91F
WRIGHTWOOD       N/A     61  14  16 CALM      29.77S
ANGELUS OAKS     N/A     60  26  27 CALM      29.77F
IDYLLWILD        N/A     55  16  21 CALM      29.80S

$$

SOUTHERN DESERT INCLUDING THE COACHELLA VALLEY

CITY           SKY/WX    TMP DP  RH WIND       PRES   REMARKS
PALM SPRINGS   CLEAR     86  43  22 SE5       29.79S
THOUSAND PALMS   N/A     88  42  19 W13       29.71F
PALM DESERT      N/A     83  50  31 CALM        N/A
INDIO            N/A     90  43  19 W10       29.74S
THERMAL        CLEAR     83  44  25 N6        29.74R
BORREGO AP     FAIR      79  30  17 NW6       29.79S
OCOTILLO WELLS   N/A     95  31  10 W3        29.68R
CANEBRAKE        N/A     89  23   9 W5        29.69S
BLYTHE         CLEAR     93  33  12 SW8       29.76S
IMPERIAL AP    CLEAR     78  55  44 E5        29.73S
YUMA AZ        CLEAR     83  45  26 CALM      29.75F

$$

UPPER DESERT

CITY           SKY/WX    TMP DP  RH WIND       PRES   REMARKS
HESPERIA         N/A     71  35  26 W7        29.68S
APPLE VALLEY     N/A     56  44  63 CALM      29.90S
PALMDALE       CLEAR     70  37  29 MISG      29.98F
LANCASTER      CLEAR     73  48  41 W12       29.97S
EDWARDS AFB    CLEAR     73  45  36 SW10      29.93S
DAGGETT        CLEAR     80  34  19 W12       29.91R
29 PALMS N     CLEAR     79  22  12 N5        29.96S
29 PALMS JTNP    N/A     82  27  13 CALM      29.71S
NEEDLES        CLEAR     91  15   6 S8        29.79R

$$

REGIONAL REPORTS

CITY           SKY/WX    TMP DP  RH WIND       PRES   REMARKS
SANTA BARBARA  CLEAR     60  56  86 W5        29.89S
SANDBERG       CLEAR     68  48  48 NW20G25   30.11F
LAS VEGAS NV   MOCLDY    89  20   8 VRB6      29.86R
PHOENIX AZ     CLEAR     97  29   9 NW10      29.77F
TIJUANA        CLEAR     61  59  94 CALM      29.95F
ENSENADA NW      N/A     63  32  31 N1        29.87F

$$

OFFSHORE ISLANDS

CITY           SKY/WX    TMP DP  RH WIND       PRES   REMARKS
CATALINA ARPT  CLEAR     69  51  52 NW9       29.96F
SAN CLEMENTE I CLEAR     58  58 100 SW6       29.95F
SAN NICOLAS IS CLEAR     57  53  86 NW28G37   29.92F

$$

MARINE AND OFFSHORE BUOY REPORTS

STATION/POSITION SKY/WX   TEMP    WIND        PRES    VSBY  SWELL
                          AIR SEA DIR/SP/G                  HT/PER/DIR
                          (F)     (DEG/KT/KT) (MB)    (MI)  (FT/S/D)
TANNER BANKS               58 58  300/ 16/ 19 1013.7F         3/320/11
S CLEMENTE BASIN           60     310/ 10/ 14 1013.0F         5/290/ 6
SAN NICOLAS IS.               58                N/A           3/300/12
SO. S. ROSA ISLA           55                   N/A           5/310/11
W. S. BARBARA CH           57     310/ 25/ 31 1013.6F         5/300/12
M. S. BARBARA CH           62     280/  8/ 10 1012.6F         3/250/10
S. MONICA BASIN            63     150/  2/  4 1012.3S         5/260/ 6
S PEDRO CHANNEL               65                N/A           2/270/11
OCEANSIDE OFFSHR              66                N/A           2/190/18
TORREY PINES OTR              67                N/A           2/200/18
SAN DIEGO BAY                 69              1013.2
IMPERIAL BEACH                66                N/A           2/270/12
POINT LOMA SOUTH              66                N/A           2/200/18

$$



 

View Past Reports for San Diego, CA.

Products Courtesy of NOAA-NWS
NWS Information Parsing Script by Ken True at Saratoga Weather - Script by SE Lincoln Weather.